{"data":{"norad_id":62990,"intl_designator":"2025-031K","name":"STARLINK-11572 [DTC]","alt_names":[],"object_type":"PAYLOAD","status":"ACTIVE","operator":null,"country":"US","launch_date":"2025-02-11","launch_site_code":"AFETR","launch_vehicle":null,"mission":null,"orbit_class":"UNKNOWN","rcs_meters":null,"size_class":null,"mass_kg":null,"dimensions":null,"purposes":["comms"],"wikipedia_slug":null,"has_3d_model":false,"image_url":null,"decayed_at":null,"tle_current":{"epoch":"2026-09-21T00:17:32.517024Z","epoch_age_seconds":120950,"freshness":"FRESH","line1":"1 62990U 25031K   26264.01218191  .00143454  00000+0  10986-2 0  9996","line2":"2 62990  42.9997 263.9329 0001759 248.6305 111.4375 15.70920192 93462","mean_motion":15.70920192,"eccentricity":0.0001759,"inclination_deg":42.9997,"raan_deg":263.9329,"arg_perigee_deg":248.6305,"mean_anomaly_deg":111.4375,"bstar":0.0010986,"rev_number":9346,"period_min":91.666018893466,"perigee_km":355.08128611031,"apogee_km":357.45044903912,"semimajor_km":6734.4028675747,"source":"CELESTRAK","updated_at":"2026-09-22T09:00:49.718354Z"}}}